Time,TemperatureF,DewpointF,PressureIn,WindDirection,WindDirectionDegrees,WindSpeedMPH,WindSpeedGustMPH,Humidity,HourlyPrecipIn,Conditions,Clouds,dailyrainin,SolarRadiationWatts/m^2,SoftwareType,DateUTC
2013-08-02 00:01:00,66.8,65.9,29.82,NNE,18,0.0,0.0,97,0.00,,,0.00,520,WeatherCatV1.14B232,2013-08-02 04:01:00,
2013-08-02 00:06:00,66.9,66.0,29.82,NNE,18,0.0,0.0,97,0.00,,,0.00,520,WeatherCatV1.14B232,2013-08-02 04:06:00,
2013-08-02 00:11:00,66.9,66.0,29.82,NNE,18,0.0,0.0,97,0.00,,,0.00,520,WeatherCatV1.14B232,2013-08-02 04:11:00,
2013-08-02 00:16:00,66.9,66.0,29.82,NNE,18,0.0,0.0,97,0.00,,,0.00,520,WeatherCatV1.14B232,2013-08-02 04:16:00,
2013-08-02 00:21:00,66.9,66.0,29.82,NNE,18,0.0,0.0,97,0.00,,,0.00,520,WeatherCatV1.14B232,2013-08-02 04:21:00,
2013-08-02 00:26:00,66.9,66.0,29.82,NNE,18,0.0,0.0,97,0.00,,,0.00,520,WeatherCatV1.14B232,2013-08-02 04:26:00,
2013-08-02 00:31:00,66.9,66.0,29.82,NNE,18,0.0,0.0,97,0.00,,,0.00,520,WeatherCatV1.14B232,2013-08-02 04:31:00,
2013-08-02 00:36:00,66.9,66.0,29.82,NNE,18,0.0,0.0,97,0.00,,,0.00,520,WeatherCatV1.14B232,2013-08-02 04:36:00,
2013-08-02 00:41:00,66.9,66.0,29.82,NNE,18,0.0,0.0,97,0.00,,,0.00,520,WeatherCatV1.14B232,2013-08-02 04:41:00,
2013-08-02 00:46:00,66.9,66.0,29.82,NNE,18,0.0,0.0,97,0.00,,,0.00,520,WeatherCatV1.14B232,2013-08-02 04:46:00,
2013-08-02 00:51:00,66.9,66.0,29.82,NNE,18,0.0,0.0,97,0.00,,,0.00,520,WeatherCatV1.14B232,2013-08-02 04:51:00,
2013-08-02 00:56:00,66.9,66.0,29.82,NNE,18,0.0,0.0,97,0.00,,,0.00,520,WeatherCatV1.14B232,2013-08-02 04:56:00,
2013-08-02 01:01:00,66.9,66.0,29.81,NNE,18,0.0,0.0,97,0.00,,,0.00,520,WeatherCatV1.14B232,2013-08-02 05:01:00,
2013-08-02 01:06:00,66.9,66.0,29.81,NNE,18,0.0,0.0,97,0.00,,,0.00,520,WeatherCatV1.14B232,2013-08-02 05:06:00,
2013-08-02 01:11:00,66.8,65.9,29.81,NNE,18,0.0,0.0,97,0.00,,,0.00,520,WeatherCatV1.14B232,2013-08-02 05:11:00,
2013-08-02 01:16:00,66.7,65.8,29.81,NNE,18,0.0,0.0,97,0.00,,,0.00,520,WeatherCatV1.14B232,2013-08-02 05:16:00,
2013-08-02 01:21:00,66.7,65.8,29.81,NNE,18,0.0,0.0,97,0.00,,,0.00,520,WeatherCatV1.14B232,2013-08-02 05:21:00,
2013-08-02 01:26:00,66.6,65.7,29.81,NNE,18,0.0,0.0,97,0.00,,,0.00,520,WeatherCatV1.14B232,2013-08-02 05:26:00,
2013-08-02 01:31:00,66.7,65.8,29.80,NNE,18,0.0,0.0,97,0.00,,,0.00,520,WeatherCatV1.14B232,2013-08-02 05:31:00,
2013-08-02 01:36:00,66.7,65.8,29.80,NNE,18,0.0,0.0,97,0.00,,,0.00,520,WeatherCatV1.14B232,2013-08-02 05:36:00,
2013-08-02 01:41:00,66.7,65.8,29.80,NNE,18,0.0,0.0,97,0.00,,,0.00,520,WeatherCatV1.14B232,2013-08-02 05:41:00,
2013-08-02 01:46:00,66.7,65.8,29.79,NNE,18,0.0,0.0,97,0.00,,,0.00,520,WeatherCatV1.14B232,2013-08-02 05:46:00,
2013-08-02 01:51:00,66.6,65.7,29.80,NNE,18,0.0,0.0,97,0.00,,,0.00,520,WeatherCatV1.14B232,2013-08-02 05:51:00,
2013-08-02 01:56:00,66.5,65.6,29.80,NNE,18,0.0,0.0,97,0.00,,,0.00,520,WeatherCatV1.14B232,2013-08-02 05:56:00,
2013-08-02 02:01:00,66.4,65.5,29.80,NNE,18,0.0,0.0,97,0.00,,,0.00,520,WeatherCatV1.14B232,2013-08-02 06:01:00,
2013-08-02 02:06:00,66.4,65.5,29.79,NNE,18,0.0,0.0,97,0.00,,,0.00,520,WeatherCatV1.14B232,2013-08-02 06:06:00,
2013-08-02 02:11:00,66.3,65.4,29.79,NNE,18,0.0,0.0,97,0.00,,,0.00,520,WeatherCatV1.14B232,2013-08-02 06:11:00,
2013-08-02 02:16:00,66.2,65.3,29.78,NNE,18,0.0,0.0,97,0.00,,,0.00,520,WeatherCatV1.14B232,2013-08-02 06:16:00,
2013-08-02 02:21:00,66.1,65.2,29.78,NNE,18,0.0,0.0,97,0.00,,,0.00,520,WeatherCatV1.14B232,2013-08-02 06:21:00,
2013-08-02 02:26:00,66.0,65.1,29.78,NNE,18,0.0,0.0,97,0.00,,,0.00,520,WeatherCatV1.14B232,2013-08-02 06:26:00,
2013-08-02 02:31:00,65.9,65.0,29.78,NNE,18,0.0,0.0,97,0.00,,,0.00,520,WeatherCatV1.14B232,2013-08-02 06:31:00,
2013-08-02 02:36:00,65.9,65.0,29.78,NNE,18,0.0,0.0,97,0.00,,,0.00,520,WeatherCatV1.14B232,2013-08-02 06:36:00,
2013-08-02 02:41:00,65.8,64.9,29.78,NNE,18,0.0,0.0,97,0.00,,,0.00,520,WeatherCatV1.14B232,2013-08-02 06:41:00,
2013-08-02 02:46:00,65.8,64.9,29.78,NNE,18,0.0,0.0,97,0.00,,,0.00,520,WeatherCatV1.14B232,2013-08-02 06:46:00,
2013-08-02 02:51:00,65.8,64.9,29.78,NNE,18,0.0,0.0,97,0.00,,,0.00,520,WeatherCatV1.14B232,2013-08-02 06:51:00,
2013-08-02 02:56:00,65.9,65.0,29.78,NNE,18,0.0,0.0,97,0.00,,,0.00,520,WeatherCatV1.14B232,2013-08-02 06:56:00,
2013-08-02 03:01:00,65.9,65.0,29.78,NNE,18,0.0,1.0,97,0.00,,,0.00,520,WeatherCatV1.14B232,2013-08-02 07:01:00,
2013-08-02 03:06:00,65.9,65.0,29.78,NNE,18,0.0,0.0,97,0.00,,,0.00,520,WeatherCatV1.14B232,2013-08-02 07:06:00,
2013-08-02 03:11:00,65.9,65.0,29.78,NNE,18,0.0,0.0,97,0.00,,,0.00,520,WeatherCatV1.14B232,2013-08-02 07:11:00,
2013-08-02 03:16:00,65.9,65.0,29.78,NNE,18,0.0,0.0,97,0.00,,,0.00,520,WeatherCatV1.14B232,2013-08-02 07:16:00,
2013-08-02 03:21:00,65.8,64.9,29.78,NNE,18,0.0,0.0,97,0.00,,,0.00,520,WeatherCatV1.14B232,2013-08-02 07:21:00,
2013-08-02 03:26:00,65.7,64.8,29.78,NNE,18,0.0,0.0,97,0.00,,,0.00,520,WeatherCatV1.14B232,2013-08-02 07:26:00,
2013-08-02 03:31:00,65.6,64.7,29.78,NNE,18,0.0,0.0,97,0.00,,,0.00,520,WeatherCatV1.14B232,2013-08-02 07:31:00,
2013-08-02 03:36:00,65.4,64.5,29.78,NNE,18,0.0,0.0,97,0.00,,,0.00,520,WeatherCatV1.14B232,2013-08-02 07:36:00,
2013-08-02 03:41:00,65.3,64.4,29.78,NNE,18,0.0,0.0,97,0.00,,,0.00,520,WeatherCatV1.14B232,2013-08-02 07:41:00,
2013-08-02 03:46:00,65.1,64.2,29.78,NNE,18,0.0,0.0,97,0.00,,,0.00,520,WeatherCatV1.14B232,2013-08-02 07:46:00,
2013-08-02 03:51:00,65.0,64.1,29.78,NNE,18,0.0,0.0,97,0.00,,,0.00,520,WeatherCatV1.14B232,2013-08-02 07:51:00,
2013-08-02 03:56:00,64.9,64.0,29.78,NNE,18,0.0,0.0,97,0.00,,,0.00,520,WeatherCatV1.14B232,2013-08-02 07:56:00,
2013-08-02 04:01:00,64.8,63.9,29.79,NNE,18,0.0,0.0,97,0.00,,,0.00,520,WeatherCatV1.14B232,2013-08-02 08:01:00,
2013-08-02 04:06:00,64.8,63.9,29.79,NNE,18,0.0,0.0,97,0.00,,,0.00,520,WeatherCatV1.14B232,2013-08-02 08:06:00,
2013-08-02 04:11:00,64.7,63.8,29.79,NNE,18,0.0,0.0,97,0.00,,,0.00,520,WeatherCatV1.14B232,2013-08-02 08:11:00,
2013-08-02 04:16:00,64.5,63.6,29.79,NNE,18,0.0,0.0,97,0.00,,,0.00,520,WeatherCatV1.14B232,2013-08-02 08:16:00,
2013-08-02 04:21:00,64.4,63.5,29.79,NNE,18,0.0,0.0,97,0.00,,,0.00,520,WeatherCatV1.14B232,2013-08-02 08:21:00,
2013-08-02 04:26:00,64.3,63.4,29.79,NNE,18,0.0,0.0,97,0.00,,,0.00,520,WeatherCatV1.14B232,2013-08-02 08:26:00,
2013-08-02 04:31:00,64.2,63.3,29.79,NNE,18,0.0,0.0,97,0.00,,,0.00,520,WeatherCatV1.14B232,2013-08-02 08:31:00,
2013-08-02 04:36:00,64.0,63.1,29.80,NNE,18,0.0,0.0,97,0.00,,,0.00,520,WeatherCatV1.14B232,2013-08-02 08:36:00,
2013-08-02 04:41:00,63.8,62.9,29.80,NNE,18,0.0,0.0,97,0.00,,,0.00,520,WeatherCatV1.14B232,2013-08-02 08:41:00,
2013-08-02 04:46:00,63.6,62.7,29.80,NNE,18,0.0,0.0,97,0.00,,,0.00,520,WeatherCatV1.14B232,2013-08-02 08:46:00,
2013-08-02 04:51:00,63.4,62.5,29.80,NNE,18,0.0,0.0,97,0.00,,,0.00,520,WeatherCatV1.14B232,2013-08-02 08:51:00,
2013-08-02 04:56:00,63.3,62.4,29.80,NNE,18,0.0,0.0,97,0.00,,,0.00,520,WeatherCatV1.14B232,2013-08-02 08:56:00,
2013-08-02 05:01:00,63.2,62.3,29.80,NNE,18,0.0,0.0,97,0.00,,,0.00,520,WeatherCatV1.14B232,2013-08-02 09:01:00,
2013-08-02 05:06:00,63.1,62.2,29.81,NNE,18,0.0,0.0,97,0.00,,,0.00,520,WeatherCatV1.14B232,2013-08-02 09:06:00,
2013-08-02 05:11:00,63.0,62.1,29.81,NNE,16,0.0,0.0,97,0.00,,,0.00,520,WeatherCatV1.14B232,2013-08-02 09:11:00,
2013-08-02 05:16:00,62.8,61.9,29.81,NNE,16,0.0,0.0,97,0.00,,,0.00,520,WeatherCatV1.14B232,2013-08-02 09:16:00,
2013-08-02 05:21:00,62.8,61.9,29.81,NNE,18,0.0,0.0,97,0.00,,,0.00,520,WeatherCatV1.14B232,2013-08-02 09:21:00,
2013-08-02 05:26:00,62.7,61.8,29.81,NNE,18,0.0,0.0,97,0.00,,,0.00,520,WeatherCatV1.14B232,2013-08-02 09:26:00,
2013-08-02 05:31:00,62.6,61.7,29.82,NNE,18,0.0,0.0,97,0.00,,,0.00,520,WeatherCatV1.14B232,2013-08-02 09:31:00,
2013-08-02 05:36:00,62.5,61.6,29.82,NNE,18,0.0,0.0,97,0.00,,,0.00,520,WeatherCatV1.14B232,2013-08-02 09:36:00,
2013-08-02 05:41:00,62.5,61.6,29.82,NNE,18,0.0,0.0,97,0.00,,,0.00,520,WeatherCatV1.14B232,2013-08-02 09:41:00,
2013-08-02 05:46:00,62.4,61.5,29.82,NNE,18,0.0,0.0,97,0.00,,,0.00,520,WeatherCatV1.14B232,2013-08-02 09:46:00,
2013-08-02 05:51:00,62.3,61.4,29.82,NNE,18,0.0,0.0,97,0.00,,,0.00,520,WeatherCatV1.14B232,2013-08-02 09:51:00,
2013-08-02 05:56:00,62.2,61.3,29.83,NNE,18,0.0,0.0,97,0.00,,,0.00,520,WeatherCatV1.14B232,2013-08-02 09:56:00,
2013-08-02 06:01:00,62.1,61.2,29.83,NNE,18,0.0,0.0,97,0.00,,,0.00,520,WeatherCatV1.14B232,2013-08-02 10:01:00,
2013-08-02 06:06:00,62.1,61.2,29.83,NNE,18,0.0,0.0,97,0.00,,,0.00,520,WeatherCatV1.14B232,2013-08-02 10:06:00,
2013-08-02 06:11:00,62.0,61.1,29.83,NNE,18,0.0,0.0,97,0.00,,,0.00,520,WeatherCatV1.14B232,2013-08-02 10:11:00,
2013-08-02 06:16:00,62.0,61.1,29.83,NNE,18,0.0,0.0,97,0.00,,,0.00,520,WeatherCatV1.14B232,2013-08-02 10:16:00,
2013-08-02 06:21:00,62.0,61.1,29.83,NNE,18,0.0,0.0,97,0.00,,,0.00,520,WeatherCatV1.14B232,2013-08-02 10:21:00,
2013-08-02 06:26:00,61.9,61.0,29.84,NNE,18,0.0,0.0,97,0.00,,,0.00,520,WeatherCatV1.14B232,2013-08-02 10:26:00,
2013-08-02 06:31:00,61.9,61.0,29.84,NNE,16,0.0,0.0,97,0.00,,,0.00,520,WeatherCatV1.14B232,2013-08-02 10:31:00,
2013-08-02 06:36:00,61.9,61.0,29.84,NNE,18,0.0,0.0,97,0.00,,,0.00,520,WeatherCatV1.14B232,2013-08-02 10:36:00,
2013-08-02 06:41:00,62.0,61.1,29.84,NNE,18,0.0,0.0,97,0.00,,,0.00,520,WeatherCatV1.14B232,2013-08-02 10:41:00,
2013-08-02 06:46:00,61.9,61.0,29.84,NNE,18,0.0,0.0,97,0.00,,,0.00,520,WeatherCatV1.14B232,2013-08-02 10:46:00,
2013-08-02 06:51:00,61.9,61.0,29.85,NNE,18,0.0,0.0,97,0.00,,,0.00,520,WeatherCatV1.14B232,2013-08-02 10:51:00,
2013-08-02 06:56:00,62.0,61.1,29.85,NNE,16,0.0,0.0,97,0.00,,,0.00,520,WeatherCatV1.14B232,2013-08-02 10:56:00,
2013-08-02 07:01:00,62.1,61.2,29.85,NNE,18,0.0,0.0,97,0.00,,,0.00,520,WeatherCatV1.14B232,2013-08-02 11:01:00,
2013-08-02 07:06:00,62.2,61.3,29.85,NNE,18,0.0,1.0,97,0.00,,,0.00,520,WeatherCatV1.14B232,2013-08-02 11:06:00,
2013-08-02 07:11:00,62.3,61.4,29.85,NNE,18,0.0,0.0,97,0.00,,,0.00,520,WeatherCatV1.14B232,2013-08-02 11:11:00,
2013-08-02 07:16:00,62.5,61.6,29.85,NNE,18,0.0,0.0,97,0.00,,,0.00,520,WeatherCatV1.14B232,2013-08-02 11:16:00,
2013-08-02 07:21:00,62.6,61.7,29.85,NNE,18,0.0,1.0,97,0.00,,,0.00,520,WeatherCatV1.14B232,2013-08-02 11:21:00,
2013-08-02 07:26:00,62.7,61.8,29.85,NNE,18,0.0,0.0,97,0.00,,,0.00,520,WeatherCatV1.14B232,2013-08-02 11:26:00,
2013-08-02 07:31:00,63.0,62.1,29.86,NNE,18,0.0,1.0,97,0.00,,,0.00,520,WeatherCatV1.14B232,2013-08-02 11:31:00,
2013-08-02 07:36:00,63.5,62.6,29.86,NNE,18,0.0,1.0,97,0.00,,,0.00,520,WeatherCatV1.14B232,2013-08-02 11:36:00,
2013-08-02 07:41:00,65.0,64.1,29.86,NNE,18,0.0,0.0,97,0.00,,,0.00,520,WeatherCatV1.14B232,2013-08-02 11:41:00,
2013-08-02 07:46:00,65.1,64.2,29.86,NNE,16,0.0,1.0,97,0.00,,,0.00,520,WeatherCatV1.14B232,2013-08-02 11:46:00,
2013-08-02 07:51:00,65.9,65.0,29.86,NNE,15,0.0,1.0,97,0.00,,,0.00,520,WeatherCatV1.14B232,2013-08-02 11:51:00,
2013-08-02 07:56:00,65.8,64.9,29.86,NNE,16,0.0,0.0,97,0.00,,,0.00,520,WeatherCatV1.14B232,2013-08-02 11:56:00,
2013-08-02 08:01:00,66.5,65.3,29.86,NNE,16,0.0,0.0,96,0.00,,,0.00,520,WeatherCatV1.14B232,2013-08-02 12:01:00,
2013-08-02 08:06:00,67.8,66.9,29.86,NNE,16,0.0,0.0,97,0.00,,,0.00,520,WeatherCatV1.14B232,2013-08-02 12:06:00,
2013-08-02 08:11:00,68.7,67.5,29.86,NNE,17,0.0,1.0,96,0.00,,,0.00,520,WeatherCatV1.14B232,2013-08-02 12:11:00,
2013-08-02 08:16:00,69.6,68.1,29.86,NNE,16,0.0,0.0,95,0.00,,,0.00,520,WeatherCatV1.14B232,2013-08-02 12:16:00,
2013-08-02 08:21:00,70.0,67.2,29.86,NNE,16,0.0,0.0,91,0.00,,,0.00,520,WeatherCatV1.14B232,2013-08-02 12:21:00,
2013-08-02 08:26:00,70.3,67.2,29.87,NNE,16,0.0,0.0,90,0.00,,,0.00,520,WeatherCatV1.14B232,2013-08-02 12:26:00,
2013-08-02 08:31:00,70.1,66.7,29.87,NNE,16,0.0,1.0,89,0.00,,,0.00,520,WeatherCatV1.14B232,2013-08-02 12:31:00,
2013-08-02 08:36:00,69.9,66.2,29.87,NNE,17,0.0,1.0,88,0.00,,,0.00,520,WeatherCatV1.14B232,2013-08-02 12:36:00,
2013-08-02 08:41:00,70.0,66.6,29.87,NNE,17,0.0,1.0,89,0.00,,,0.00,520,WeatherCatV1.14B232,2013-08-02 12:41:00,
2013-08-02 08:46:00,70.3,66.2,29.87,NNE,16,0.0,0.0,87,0.00,,,0.00,520,WeatherCatV1.14B232,2013-08-02 12:46:00,
2013-08-02 08:51:00,70.3,66.6,29.87,NNE,16,0.0,0.0,88,0.00,,,0.00,520,WeatherCatV1.14B232,2013-08-02 12:51:00,
2013-08-02 08:56:00,70.7,67.0,29.87,NNE,16,0.0,1.0,88,0.00,,,0.00,520,WeatherCatV1.14B232,2013-08-02 12:56:00,
2013-08-02 09:01:00,71.3,66.5,29.87,NNE,16,0.0,1.0,85,0.00,,,0.00,520,WeatherCatV1.14B232,2013-08-02 13:01:00,
2013-08-02 09:06:00,71.8,67.4,29.87,NNE,16,0.0,1.0,86,0.00,,,0.00,520,WeatherCatV1.14B232,2013-08-02 13:06:00,
2013-08-02 09:11:00,72.3,67.2,29.87,NNE,16,0.0,1.0,84,0.00,,,0.00,520,WeatherCatV1.14B232,2013-08-02 13:11:00,
2013-08-02 09:16:00,72.5,67.0,29.87,NNE,16,1.0,1.0,83,0.00,,,0.00,520,WeatherCatV1.14B232,2013-08-02 13:16:00,
2013-08-02 09:21:00,73.2,68.1,29.87,NNE,16,0.0,1.0,84,0.00,,,0.00,520,WeatherCatV1.14B232,2013-08-02 13:21:00,
2013-08-02 09:26:00,74.0,68.1,29.87,NNE,16,0.0,0.0,82,0.00,,,0.00,520,WeatherCatV1.14B232,2013-08-02 13:26:00,
2013-08-02 09:31:00,74.5,67.9,29.87,NNE,16,0.0,1.0,80,0.00,,,0.00,520,WeatherCatV1.14B232,2013-08-02 13:31:00,
2013-08-02 09:36:00,74.7,68.5,29.87,NNE,16,0.0,1.0,81,0.00,,,0.00,520,WeatherCatV1.14B232,2013-08-02 13:36:00,
2013-08-02 09:41:00,75.4,68.4,29.87,NNE,16,0.0,1.0,79,0.00,,,0.00,520,WeatherCatV1.14B232,2013-08-02 13:41:00,
2013-08-02 09:46:00,76.2,68.8,29.87,NNE,16,0.0,1.0,78,0.00,,,0.00,520,WeatherCatV1.14B232,2013-08-02 13:46:00,
2013-08-02 09:51:00,76.8,68.6,29.87,NNE,16,0.0,2.0,76,0.00,,,0.00,520,WeatherCatV1.14B232,2013-08-02 13:51:00,
2013-08-02 09:56:00,76.8,67.9,29.87,NNE,16,0.0,1.0,74,0.00,,,0.00,520,WeatherCatV1.14B232,2013-08-02 13:56:00,
2013-08-02 10:01:00,77.0,68.8,29.88,NNE,16,0.0,0.0,76,0.00,,,0.00,520,WeatherCatV1.14B232,2013-08-02 14:01:00,
2013-08-02 10:06:00,77.0,67.7,29.88,NNE,16,0.0,1.0,73,0.00,,,0.00,520,WeatherCatV1.14B232,2013-08-02 14:06:00,
2013-08-02 10:11:00,77.0,68.8,29.88,NNE,15,0.0,1.0,76,0.00,,,0.00,520,WeatherCatV1.14B232,2013-08-02 14:11:00,
2013-08-02 10:16:00,77.4,68.4,29.88,NNE,16,0.0,1.0,74,0.00,,,0.00,520,WeatherCatV1.14B232,2013-08-02 14:16:00,
2013-08-02 10:21:00,77.0,67.7,29.88,NNE,16,0.0,1.0,73,0.00,,,0.00,520,WeatherCatV1.14B232,2013-08-02 14:21:00,
2013-08-02 10:26:00,77.0,67.3,29.88,NNE,16,0.0,0.0,72,0.00,,,0.00,520,WeatherCatV1.14B232,2013-08-02 14:26:00,
2013-08-02 10:31:00,77.8,68.0,29.88,NNE,15,0.0,1.0,72,0.00,,,0.00,520,WeatherCatV1.14B232,2013-08-02 14:31:00,
2013-08-02 10:36:00,78.8,68.2,29.88,NNE,16,0.0,1.0,70,0.00,,,0.00,520,WeatherCatV1.14B232,2013-08-02 14:36:00,
2013-08-02 10:41:00,79.2,67.3,29.88,NNE,16,0.0,2.0,67,0.00,,,0.00,520,WeatherCatV1.14B232,2013-08-02 14:41:00,
2013-08-02 10:46:00,78.7,68.5,29.88,NNE,15,0.0,1.0,71,0.00,,,0.00,520,WeatherCatV1.14B232,2013-08-02 14:46:00,
2013-08-02 10:51:00,79.2,69.0,29.89,NNE,15,0.0,1.0,71,0.00,,,0.00,520,WeatherCatV1.14B232,2013-08-02 14:51:00,
2013-08-02 10:56:00,78.9,67.8,29.89,NNE,16,2.0,2.0,69,0.00,,,0.00,520,WeatherCatV1.14B232,2013-08-02 14:56:00,
2013-08-02 11:01:00,78.2,67.2,29.89,NNE,16,0.0,1.0,69,0.00,,,0.00,520,WeatherCatV1.14B232,2013-08-02 15:01:00,
2013-08-02 11:06:00,78.4,69.8,29.89,NNE,16,0.0,0.0,75,0.00,,,0.00,520,WeatherCatV1.14B232,2013-08-02 15:06:00,
2013-08-02 11:11:00,78.6,67.6,29.89,NNE,15,0.0,1.0,69,0.00,,,0.00,520,WeatherCatV1.14B232,2013-08-02 15:11:00,
2013-08-02 11:16:00,78.4,67.8,29.89,NNE,16,1.0,1.0,70,0.00,,,0.00,520,WeatherCatV1.14B232,2013-08-02 15:16:00,
2013-08-02 11:21:00,78.2,66.3,29.89,NNE,15,0.0,3.0,67,0.00,,,0.00,520,WeatherCatV1.14B232,2013-08-02 15:21:00,
2013-08-02 11:26:00,78.4,66.9,29.89,NNE,16,0.0,2.0,68,0.00,,,0.00,520,WeatherCatV1.14B232,2013-08-02 15:26:00,
2013-08-02 11:31:00,78.5,66.2,29.89,NNE,16,0.0,1.0,66,0.00,,,0.00,520,WeatherCatV1.14B232,2013-08-02 15:31:00,
2013-08-02 11:36:00,79.0,67.1,29.89,NNE,15,0.0,1.0,67,0.00,,,0.00,520,WeatherCatV1.14B232,2013-08-02 15:36:00,
2013-08-02 11:41:00,79.4,66.6,29.89,NNE,15,1.0,1.0,65,0.00,,,0.00,520,WeatherCatV1.14B232,2013-08-02 15:41:00,
2013-08-02 11:46:00,78.9,66.6,29.88,NNE,15,1.0,2.0,66,0.00,,,0.00,520,WeatherCatV1.14B232,2013-08-02 15:46:00,
2013-08-02 11:51:00,79.6,67.2,29.88,NNE,15,1.0,1.0,66,0.00,,,0.00,520,WeatherCatV1.14B232,2013-08-02 15:51:00,
2013-08-02 11:56:00,80.4,66.2,29.89,NNE,15,1.0,2.0,62,0.00,,,0.00,520,WeatherCatV1.14B232,2013-08-02 15:56:00,
2013-08-02 12:01:00,80.3,66.1,29.88,NNE,15,1.0,1.0,62,0.00,,,0.00,520,WeatherCatV1.14B232,2013-08-02 16:01:00,
2013-08-02 12:06:00,80.2,66.0,29.88,NNE,15,1.0,1.0,62,0.00,,,0.00,520,WeatherCatV1.14B232,2013-08-02 16:06:00,
2013-08-02 12:11:00,79.9,65.2,29.88,NNE,15,1.0,2.0,61,0.00,,,0.00,520,WeatherCatV1.14B232,2013-08-02 16:11:00,
2013-08-02 12:16:00,80.4,67.1,29.88,NNE,15,0.0,2.0,64,0.00,,,0.00,520,WeatherCatV1.14B232,2013-08-02 16:16:00,
2013-08-02 12:21:00,79.9,65.7,29.88,NNE,16,1.0,2.0,62,0.00,,,0.00,520,WeatherCatV1.14B232,2013-08-02 16:21:00,
2013-08-02 12:26:00,78.9,64.8,29.88,NNE,15,0.0,1.0,62,0.00,,,0.00,520,WeatherCatV1.14B232,2013-08-02 16:26:00,
2013-08-02 12:31:00,79.5,66.7,29.88,NNE,15,0.0,1.0,65,0.00,,,0.00,520,WeatherCatV1.14B232,2013-08-02 16:31:00,
2013-08-02 12:36:00,79.9,67.1,29.88,NNE,15,0.0,1.0,65,0.00,,,0.00,520,WeatherCatV1.14B232,2013-08-02 16:36:00,
2013-08-02 12:41:00,80.0,63.9,29.88,NNE,15,1.0,4.0,58,0.00,,,0.00,520,WeatherCatV1.14B232,2013-08-02 16:41:00,
2013-08-02 12:46:00,80.4,64.7,29.88,NNE,15,0.0,0.0,59,0.00,,,0.00,520,WeatherCatV1.14B232,2013-08-02 16:46:00,
2013-08-02 12:51:00,81.1,65.9,29.88,NNE,15,0.0,0.0,60,0.00,,,0.00,520,WeatherCatV1.14B232,2013-08-02 16:51:00,
2013-08-02 12:56:00,81.9,65.1,29.87,NNE,15,0.0,0.0,57,0.00,,,0.00,520,WeatherCatV1.14B232,2013-08-02 16:56:00,
2013-08-02 13:01:00,81.5,65.3,29.87,NNE,15,0.0,1.0,58,0.00,,,0.00,520,WeatherCatV1.14B232,2013-08-02 17:01:00,
2013-08-02 13:06:00,81.0,65.3,29.87,NNE,15,0.0,1.0,59,0.00,,,0.00,520,WeatherCatV1.14B232,2013-08-02 17:06:00,
2013-08-02 13:11:00,81.8,66.5,29.87,NNE,15,0.0,0.0,60,0.00,,,0.00,520,WeatherCatV1.14B232,2013-08-02 17:11:00,
2013-08-02 13:16:00,82.1,65.3,29.86,NNE,16,0.0,0.0,57,0.00,,,0.00,520,WeatherCatV1.14B232,2013-08-02 17:16:00,
2013-08-02 13:21:00,83.3,66.4,29.86,NNE,16,0.0,2.0,57,0.00,,,0.00,520,WeatherCatV1.14B232,2013-08-02 17:21:00,
2013-08-02 13:26:00,83.3,66.4,29.86,NNE,15,0.0,0.0,57,0.00,,,0.00,520,WeatherCatV1.14B232,2013-08-02 17:26:00,
2013-08-02 13:31:00,82.8,66.5,29.86,NNE,16,1.0,1.0,58,0.00,,,0.00,520,WeatherCatV1.14B232,2013-08-02 17:31:00,
2013-08-02 13:36:00,83.0,66.7,29.86,NNE,16,0.0,1.0,58,0.00,,,0.00,520,WeatherCatV1.14B232,2013-08-02 17:36:00,
2013-08-02 13:41:00,83.3,66.4,29.87,NNE,15,1.0,2.0,57,0.00,,,0.00,520,WeatherCatV1.14B232,2013-08-02 17:41:00,
2013-08-02 13:46:00,83.0,66.2,29.86,NNE,15,1.0,2.0,57,0.00,,,0.00,520,WeatherCatV1.14B232,2013-08-02 17:46:00,
2013-08-02 13:51:00,82.5,65.2,29.86,NNE,15,0.0,1.0,56,0.00,,,0.00,520,WeatherCatV1.14B232,2013-08-02 17:51:00,
2013-08-02 13:56:00,82.3,64.0,29.86,NNE,16,2.0,2.0,54,0.00,,,0.00,520,WeatherCatV1.14B232,2013-08-02 17:56:00,
2013-08-02 14:01:00,82.1,64.3,29.86,NNE,15,0.0,2.0,55,0.00,,,0.00,520,WeatherCatV1.14B232,2013-08-02 18:01:00,
2013-08-02 14:06:00,82.2,64.9,29.86,NNE,15,1.0,2.0,56,0.00,,,0.00,520,WeatherCatV1.14B232,2013-08-02 18:06:00,
2013-08-02 14:11:00,82.1,64.3,29.86,NNE,15,7.0,7.0,55,0.00,,,0.00,520,WeatherCatV1.14B232,2013-08-02 18:11:00,
2013-08-02 14:16:00,81.5,64.3,29.86,NNE,16,1.0,2.0,56,0.00,,,0.00,520,WeatherCatV1.14B232,2013-08-02 18:16:00,
2013-08-02 14:21:00,81.3,62.0,29.86,NNE,15,1.0,3.0,52,0.00,,,0.00,520,WeatherCatV1.14B232,2013-08-02 18:21:00,
2013-08-02 14:26:00,81.4,64.2,29.86,NNE,15,1.0,2.0,56,0.00,,,0.00,520,WeatherCatV1.14B232,2013-08-02 18:26:00,
2013-08-02 14:31:00,81.3,65.1,29.86,NNE,15,1.0,4.0,58,0.00,,,0.00,520,WeatherCatV1.14B232,2013-08-02 18:31:00,
2013-08-02 14:36:00,80.5,63.3,29.86,NNE,15,1.0,4.0,56,0.00,,,0.00,520,WeatherCatV1.14B232,2013-08-02 18:36:00,
2013-08-02 14:41:00,79.9,64.7,29.86,NNE,15,1.0,2.0,60,0.00,,,0.00,520,WeatherCatV1.14B232,2013-08-02 18:41:00,
2013-08-02 14:46:00,79.9,63.8,29.86,NNE,15,0.0,1.0,58,0.00,,,0.00,520,WeatherCatV1.14B232,2013-08-02 18:46:00,
2013-08-02 14:51:00,80.4,65.2,29.85,NNE,15,0.0,0.0,60,0.00,,,0.00,520,WeatherCatV1.14B232,2013-08-02 18:51:00,
2013-08-02 14:56:00,80.7,64.5,29.85,NNE,15,0.0,2.0,58,0.00,,,0.00,520,WeatherCatV1.14B232,2013-08-02 18:56:00,
2013-08-02 15:01:00,81.2,65.5,29.85,NNE,16,1.0,1.0,59,0.00,,,0.00,520,WeatherCatV1.14B232,2013-08-02 19:01:00,
2013-08-02 15:06:00,81.1,64.4,29.85,NNE,15,0.0,3.0,57,0.00,,,0.00,520,WeatherCatV1.14B232,2013-08-02 19:06:00,
2013-08-02 15:11:00,81.2,64.0,29.85,NNE,16,1.0,2.0,56,0.00,,,0.00,520,WeatherCatV1.14B232,2013-08-02 19:11:00,
2013-08-02 15:16:00,81.2,64.0,29.85,NNE,15,1.0,3.0,56,0.00,,,0.00,520,WeatherCatV1.14B232,2013-08-02 19:16:00,
2013-08-02 15:21:00,81.2,64.5,29.84,NNE,16,5.0,6.0,57,0.00,,,0.00,520,WeatherCatV1.14B232,2013-08-02 19:21:00,
2013-08-02 15:26:00,81.2,64.5,29.84,NNE,17,1.0,2.0,57,0.00,,,0.00,520,WeatherCatV1.14B232,2013-08-02 19:26:00,
2013-08-02 15:31:00,81.2,64.5,29.85,NNE,19,1.0,1.0,57,0.00,,,0.00,520,WeatherCatV1.14B232,2013-08-02 19:31:00,
2013-08-02 15:36:00,80.9,63.2,29.84,NNE,19,0.0,2.0,55,0.00,,,0.00,520,WeatherCatV1.14B232,2013-08-02 19:36:00,
2013-08-02 15:41:00,80.7,62.5,29.84,NNE,18,0.0,2.0,54,0.00,,,0.00,520,WeatherCatV1.14B232,2013-08-02 19:41:00,
2013-08-02 15:46:00,80.7,63.0,29.84,NNE,19,1.0,4.0,55,0.00,,,0.00,520,WeatherCatV1.14B232,2013-08-02 19:46:00,
2013-08-02 15:51:00,80.4,64.2,29.84,NNE,18,0.0,1.0,58,0.00,,,0.00,520,WeatherCatV1.14B232,2013-08-02 19:51:00,
2013-08-02 15:56:00,80.1,63.0,29.84,NNE,19,1.0,2.0,56,0.00,,,0.00,520,WeatherCatV1.14B232,2013-08-02 19:56:00,
2013-08-02 16:01:00,80.2,63.1,29.84,NNE,18,0.0,2.0,56,0.00,,,0.00,520,WeatherCatV1.14B232,2013-08-02 20:01:00,
2013-08-02 16:06:00,80.3,62.6,29.84,NNE,19,2.0,2.0,55,0.00,,,0.00,520,WeatherCatV1.14B232,2013-08-02 20:06:00,
2013-08-02 16:11:00,80.2,63.6,29.84,NNE,19,1.0,4.0,57,0.00,,,0.00,520,WeatherCatV1.14B232,2013-08-02 20:11:00,
2013-08-02 16:16:00,80.0,63.4,29.84,NNE,19,1.0,2.0,57,0.00,,,0.00,520,WeatherCatV1.14B232,2013-08-02 20:16:00,
2013-08-02 16:21:00,79.9,62.8,29.84,NNE,19,0.0,3.0,56,0.00,,,0.00,520,WeatherCatV1.14B232,2013-08-02 20:21:00,
2013-08-02 16:26:00,79.7,62.6,29.84,NNE,18,1.0,3.0,56,0.00,,,0.00,520,WeatherCatV1.14B232,2013-08-02 20:26:00,
2013-08-02 16:31:00,79.5,63.4,29.85,NNE,19,0.0,2.0,58,0.00,,,0.00,520,WeatherCatV1.14B232,2013-08-02 20:31:00,
2013-08-02 16:36:00,79.2,65.0,29.85,NNE,18,2.0,2.0,62,0.00,,,0.00,520,WeatherCatV1.14B232,2013-08-02 20:36:00,
2013-08-02 16:41:00,79.0,63.4,29.85,NNE,19,1.0,1.0,59,0.00,,,0.00,520,WeatherCatV1.14B232,2013-08-02 20:41:00,
2013-08-02 16:46:00,79.0,62.9,29.85,NNE,19,0.0,2.0,58,0.00,,,0.00,520,WeatherCatV1.14B232,2013-08-02 20:46:00,
2013-08-02 16:51:00,78.6,63.0,29.85,NNE,19,2.0,3.0,59,0.00,,,0.00,520,WeatherCatV1.14B232,2013-08-02 20:51:00,
2013-08-02 16:56:00,78.3,63.2,29.85,NNE,18,1.0,1.0,60,0.00,,,0.00,520,WeatherCatV1.14B232,2013-08-02 20:56:00,
2013-08-02 17:01:00,78.0,63.4,29.85,NNE,18,0.0,1.0,61,0.00,,,0.00,520,WeatherCatV1.14B232,2013-08-02 21:01:00,
2013-08-02 17:06:00,77.9,63.3,29.85,NNE,19,0.0,1.0,61,0.00,,,0.00,520,WeatherCatV1.14B232,2013-08-02 21:06:00,
2013-08-02 17:11:00,78.0,64.4,29.85,NNE,19,1.0,2.0,63,0.00,,,0.00,520,WeatherCatV1.14B232,2013-08-02 21:11:00,
2013-08-02 17:16:00,78.0,64.8,29.85,NNE,19,0.0,1.0,64,0.00,,,0.00,520,WeatherCatV1.14B232,2013-08-02 21:16:00,
2013-08-02 17:21:00,77.8,64.2,29.85,NNE,19,0.0,1.0,63,0.00,,,0.00,520,WeatherCatV1.14B232,2013-08-02 21:21:00,
2013-08-02 17:26:00,77.6,64.4,29.85,NNE,18,0.0,2.0,64,0.00,,,0.00,520,WeatherCatV1.14B232,2013-08-02 21:26:00,
2013-08-02 17:31:00,77.4,63.8,29.85,NNE,18,1.0,2.0,63,0.00,,,0.00,520,WeatherCatV1.14B232,2013-08-02 21:31:00,
2013-08-02 17:36:00,77.4,64.7,29.85,NNE,19,0.0,1.0,65,0.00,,,0.00,520,WeatherCatV1.14B232,2013-08-02 21:36:00,
2013-08-02 17:41:00,77.3,65.0,29.85,NNE,19,0.0,1.0,66,0.00,,,0.00,520,WeatherCatV1.14B232,2013-08-02 21:41:00,
2013-08-02 17:46:00,77.3,64.2,29.85,NNE,19,0.0,0.0,64,0.00,,,0.00,520,WeatherCatV1.14B232,2013-08-02 21:46:00,
2013-08-02 17:51:00,77.4,65.6,29.84,NNE,18,0.0,0.0,67,0.00,,,0.00,520,WeatherCatV1.14B232,2013-08-02 21:51:00,
2013-08-02 17:56:00,77.2,65.4,29.84,NNE,20,1.0,2.0,67,0.00,,,0.00,520,WeatherCatV1.14B232,2013-08-02 21:56:00,
2013-08-02 18:01:00,76.9,65.5,29.84,NNE,20,0.0,1.0,68,0.00,,,0.00,520,WeatherCatV1.14B232,2013-08-02 22:01:00,
2013-08-02 18:06:00,76.6,64.8,29.83,NNE,20,0.0,1.0,67,0.00,,,0.00,520,WeatherCatV1.14B232,2013-08-02 22:06:00,
2013-08-02 18:11:00,76.4,65.0,29.83,NNE,20,0.0,0.0,68,0.00,,,0.00,520,WeatherCatV1.14B232,2013-08-02 22:11:00,
2013-08-02 18:16:00,76.3,64.9,29.82,NNE,20,0.0,0.0,68,0.00,,,0.00,520,WeatherCatV1.14B232,2013-08-02 22:16:00,
2013-08-02 18:21:00,76.2,64.8,29.82,NNE,20,0.0,0.0,68,0.00,,,0.00,520,WeatherCatV1.14B232,2013-08-02 22:21:00,
2013-08-02 18:26:00,76.1,64.8,29.82,NNE,20,0.0,1.0,68,0.00,,,0.00,520,WeatherCatV1.14B232,2013-08-02 22:26:00,
2013-08-02 18:31:00,76.1,64.8,29.82,NNE,20,0.0,0.0,68,0.00,,,0.00,520,WeatherCatV1.14B232,2013-08-02 22:31:00,
2013-08-02 18:36:00,76.4,65.5,29.82,NNE,20,0.0,0.0,69,0.00,,,0.00,520,WeatherCatV1.14B232,2013-08-02 22:36:00,
2013-08-02 18:41:00,76.8,65.4,29.83,NNE,20,1.0,1.0,68,0.00,,,0.00,520,WeatherCatV1.14B232,2013-08-02 22:41:00,
2013-08-02 18:46:00,77.0,65.2,29.83,NNE,20,0.0,0.0,67,0.00,,,0.00,520,WeatherCatV1.14B232,2013-08-02 22:46:00,
2013-08-02 18:51:00,77.0,65.6,29.84,NNE,20,1.0,1.0,68,0.00,,,0.00,520,WeatherCatV1.14B232,2013-08-02 22:51:00,
2013-08-02 18:56:00,76.8,65.8,29.84,NNE,20,0.0,1.0,69,0.00,,,0.00,520,WeatherCatV1.14B232,2013-08-02 22:56:00,
2013-08-02 19:01:00,76.6,64.8,29.84,NNE,20,0.0,2.0,67,0.00,,,0.00,520,WeatherCatV1.14B232,2013-08-02 23:01:00,
2013-08-02 19:06:00,76.4,65.0,29.84,NNE,20,0.0,1.0,68,0.00,,,0.00,520,WeatherCatV1.14B232,2013-08-02 23:06:00,
2013-08-02 19:11:00,76.2,65.7,29.85,NNE,20,0.0,0.0,70,0.00,,,0.00,520,WeatherCatV1.14B232,2013-08-02 23:11:00,
2013-08-02 19:16:00,75.9,65.4,29.85,NNE,20,0.0,0.0,70,0.00,,,0.00,520,WeatherCatV1.14B232,2013-08-02 23:16:00,
2013-08-02 19:21:00,75.6,65.1,29.85,NNE,20,0.0,1.0,70,0.00,,,0.00,520,WeatherCatV1.14B232,2013-08-02 23:21:00,
2013-08-02 19:26:00,75.3,64.8,29.85,NNE,20,0.0,0.0,70,0.00,,,0.00,520,WeatherCatV1.14B232,2013-08-02 23:26:00,
2013-08-02 19:31:00,74.9,64.8,29.85,NNE,20,0.0,1.0,71,0.00,,,0.00,520,WeatherCatV1.14B232,2013-08-02 23:31:00,
2013-08-02 19:36:00,74.6,64.2,29.85,NNE,20,0.0,0.0,70,0.00,,,0.00,520,WeatherCatV1.14B232,2013-08-02 23:36:00,
2013-08-02 19:41:00,74.4,64.0,29.85,NNE,20,0.0,0.0,70,0.00,,,0.00,520,WeatherCatV1.14B232,2013-08-02 23:41:00,
2013-08-02 19:46:00,74.4,64.4,29.85,NNE,20,0.0,0.0,71,0.00,,,0.00,520,WeatherCatV1.14B232,2013-08-02 23:46:00,
2013-08-02 19:51:00,74.3,64.3,29.85,NNE,20,0.0,0.0,71,0.00,,,0.00,520,WeatherCatV1.14B232,2013-08-02 23:51:00,
2013-08-02 19:56:00,74.1,64.1,29.85,NNE,20,0.0,0.0,71,0.00,,,0.00,520,WeatherCatV1.14B232,2013-08-02 23:56:00,
2013-08-02 20:01:00,74.1,64.1,29.85,NNE,20,0.0,0.0,71,0.00,,,0.00,520,WeatherCatV1.14B232,2013-08-03 00:01:00,
2013-08-02 20:06:00,74.0,64.4,29.85,NNE,20,0.0,0.0,72,0.00,,,0.00,520,WeatherCatV1.14B232,2013-08-03 00:06:00,
2013-08-02 20:11:00,74.0,64.0,29.85,NNE,20,0.0,0.0,71,0.00,,,0.00,520,WeatherCatV1.14B232,2013-08-03 00:11:00,
2013-08-02 20:16:00,73.9,63.9,29.85,NNE,20,0.0,0.0,71,0.00,,,0.00,520,WeatherCatV1.14B232,2013-08-03 00:16:00,
2013-08-02 20:21:00,73.8,64.6,29.85,NNE,20,0.0,0.0,73,0.00,,,0.00,520,WeatherCatV1.14B232,2013-08-03 00:21:00,
2013-08-02 20:26:00,73.7,64.1,29.86,NNE,20,0.0,1.0,72,0.00,,,0.00,520,WeatherCatV1.14B232,2013-08-03 00:26:00,
2013-08-02 20:31:00,73.4,64.6,29.86,NNE,20,0.0,1.0,74,0.00,,,0.00,520,WeatherCatV1.14B232,2013-08-03 00:31:00,
2013-08-02 20:36:00,73.1,64.3,29.86,NNE,20,0.0,1.0,74,0.00,,,0.00,520,WeatherCatV1.14B232,2013-08-03 00:36:00,
2013-08-02 20:41:00,72.9,64.1,29.86,NNE,20,0.0,1.0,74,0.00,,,0.00,520,WeatherCatV1.14B232,2013-08-03 00:41:00,
2013-08-02 20:46:00,72.7,64.3,29.86,NNE,20,0.0,0.0,75,0.00,,,0.00,520,WeatherCatV1.14B232,2013-08-03 00:46:00,
2013-08-02 20:51:00,72.4,64.0,29.86,NNE,20,0.0,1.0,75,0.00,,,0.00,520,WeatherCatV1.14B232,2013-08-03 00:51:00,
2013-08-02 20:56:00,72.2,63.8,29.86,NNE,20,0.0,0.0,75,0.00,,,0.00,520,WeatherCatV1.14B232,2013-08-03 00:56:00,
2013-08-02 21:01:00,71.9,63.5,29.86,NNE,20,0.0,0.0,75,0.00,,,0.00,520,WeatherCatV1.14B232,2013-08-03 01:01:00,
2013-08-02 21:06:00,71.7,63.7,29.86,NNE,20,0.0,0.0,76,0.00,,,0.00,520,WeatherCatV1.14B232,2013-08-03 01:06:00,
2013-08-02 21:11:00,71.5,63.5,29.87,NNE,20,0.0,0.0,76,0.00,,,0.00,520,WeatherCatV1.14B232,2013-08-03 01:11:00,
2013-08-02 21:16:00,71.4,63.4,29.87,NNE,20,0.0,0.0,76,0.00,,,0.00,520,WeatherCatV1.14B232,2013-08-03 01:16:00,
2013-08-02 21:21:00,71.2,63.6,29.87,NNE,20,1.0,1.0,77,0.00,,,0.00,520,WeatherCatV1.14B232,2013-08-03 01:21:00,
2013-08-02 21:26:00,71.4,63.4,29.88,NNE,20,0.0,2.0,76,0.00,,,0.00,520,WeatherCatV1.14B232,2013-08-03 01:26:00,
2013-08-02 21:31:00,71.4,63.8,29.88,NNE,20,0.0,0.0,77,0.00,,,0.00,520,WeatherCatV1.14B232,2013-08-03 01:31:00,
2013-08-02 21:36:00,71.4,63.4,29.88,NNE,20,0.0,0.0,76,0.00,,,0.00,520,WeatherCatV1.14B232,2013-08-03 01:36:00,
2013-08-02 21:41:00,71.3,63.3,29.88,NNE,20,0.0,1.0,76,0.00,,,0.00,520,WeatherCatV1.14B232,2013-08-03 01:41:00,
2013-08-02 21:46:00,71.2,63.6,29.88,NNE,20,0.0,1.0,77,0.00,,,0.00,520,WeatherCatV1.14B232,2013-08-03 01:46:00,
2013-08-02 21:51:00,71.2,63.2,29.88,NNE,20,0.0,1.0,76,0.00,,,0.00,520,WeatherCatV1.14B232,2013-08-03 01:51:00,
2013-08-02 21:56:00,71.3,63.3,29.88,NNE,20,0.0,1.0,76,0.00,,,0.00,520,WeatherCatV1.14B232,2013-08-03 01:56:00,
2013-08-02 22:01:00,71.4,63.4,29.88,NNE,20,0.0,1.0,76,0.00,,,0.00,520,WeatherCatV1.14B232,2013-08-03 02:01:00,
2013-08-02 22:06:00,71.3,63.3,29.88,NNE,20,0.0,0.0,76,0.00,,,0.00,520,WeatherCatV1.14B232,2013-08-03 02:06:00,
2013-08-02 22:11:00,71.1,63.1,29.88,NNE,20,0.0,1.0,76,0.00,,,0.00,520,WeatherCatV1.14B232,2013-08-03 02:11:00,
2013-08-02 22:16:00,70.9,63.3,29.88,NNE,20,0.0,1.0,77,0.00,,,0.00,520,WeatherCatV1.14B232,2013-08-03 02:16:00,
2013-08-02 22:21:00,70.6,63.0,29.88,NNE,20,0.0,0.0,77,0.00,,,0.00,520,WeatherCatV1.14B232,2013-08-03 02:21:00,
2013-08-02 22:26:00,70.3,63.5,29.88,NNE,20,0.0,0.0,79,0.00,,,0.00,520,WeatherCatV1.14B232,2013-08-03 02:26:00,
2013-08-02 22:31:00,70.1,63.3,29.88,NNE,20,0.0,1.0,79,0.00,,,0.00,520,WeatherCatV1.14B232,2013-08-03 02:31:00,
2013-08-02 22:36:00,69.9,63.4,29.89,NNE,20,0.0,0.0,80,0.00,,,0.00,520,WeatherCatV1.14B232,2013-08-03 02:36:00,
2013-08-02 22:41:00,69.6,63.1,29.89,NNE,20,0.0,0.0,80,0.00,,,0.00,520,WeatherCatV1.14B232,2013-08-03 02:41:00,
2013-08-02 22:46:00,69.5,63.4,29.89,NNE,20,0.0,0.0,81,0.00,,,0.00,520,WeatherCatV1.14B232,2013-08-03 02:46:00,
2013-08-02 22:51:00,69.3,63.2,29.89,NNE,20,0.0,1.0,81,0.00,,,0.00,520,WeatherCatV1.14B232,2013-08-03 02:51:00,
2013-08-02 22:56:00,69.0,62.9,29.89,NNE,20,0.0,0.0,81,0.00,,,0.00,520,WeatherCatV1.14B232,2013-08-03 02:56:00,
2013-08-02 23:01:00,68.8,63.1,29.89,NNE,20,0.0,0.0,82,0.00,,,0.00,520,WeatherCatV1.14B232,2013-08-03 03:01:00,
2013-08-02 23:06:00,68.6,62.9,29.89,NNE,20,0.0,0.0,82,0.00,,,0.00,520,WeatherCatV1.14B232,2013-08-03 03:06:00,
2013-08-02 23:11:00,68.5,62.8,29.89,NNE,20,0.0,0.0,82,0.00,,,0.00,520,WeatherCatV1.14B232,2013-08-03 03:11:00,
2013-08-02 23:16:00,68.5,63.1,29.89,NNE,20,0.0,0.0,83,0.00,,,0.00,520,WeatherCatV1.14B232,2013-08-03 03:16:00,
2013-08-02 23:21:00,68.5,62.8,29.89,NNE,20,0.0,1.0,82,0.00,,,0.00,520,WeatherCatV1.14B232,2013-08-03 03:21:00,
2013-08-02 23:26:00,68.4,62.3,29.89,NNE,20,0.0,0.0,81,0.00,,,0.00,520,WeatherCatV1.14B232,2013-08-03 03:26:00,
2013-08-02 23:31:00,68.5,62.4,29.89,NNE,20,0.0,1.0,81,0.00,,,0.00,520,WeatherCatV1.14B232,2013-08-03 03:31:00,
2013-08-02 23:36:00,68.6,61.8,29.89,NNE,20,0.0,0.0,79,0.00,,,0.00,520,WeatherCatV1.14B232,2013-08-03 03:36:00,
2013-08-02 23:41:00,68.6,61.8,29.89,NNE,20,1.0,1.0,79,0.00,,,0.00,520,WeatherCatV1.14B232,2013-08-03 03:41:00,
2013-08-02 23:46:00,68.6,62.2,29.89,NNE,20,0.0,1.0,80,0.00,,,0.00,520,WeatherCatV1.14B232,2013-08-03 03:46:00,
2013-08-02 23:51:00,68.6,61.8,29.89,NNE,20,0.0,1.0,79,0.00,,,0.00,520,WeatherCatV1.14B232,2013-08-03 03:51:00,
2013-08-02 23:56:00,68.6,61.5,29.89,NNE,20,0.0,0.0,78,0.00,,,0.00,520,WeatherCatV1.14B232,2013-08-03 03:56:00,